NAA262 KSFO-KSAN

Flight info

Callsign NAA262
Flight time N/A
Altitude 33000
Route WESLA5 YYUNG LAX COMIX2
Aircraft MD88/M-SDFGIRWY/S

Departure

Time N/A
Airport San Francisco International Airport (KSFO)

Arrival

Time 2026-04-26 07:22
Airport San Diego International Airport (KSAN)
Time Latitude Longitude Altitude Speed Heading
2026-04-26 06:22 35.46067 -120.97425 32963 ft 459 kts 127°
2026-04-26 06:22 35.42271 -120.90764 32968 ft 460 kts 127°
2026-04-26 06:23 35.39199 -120.85437 32970 ft 461 kts 127°
2026-04-26 06:23 35.34867 -120.77990 32971 ft 462 kts 128°
2026-04-26 06:24 35.31130 -120.71581 32971 ft 463 kts 128°
2026-04-26 06:24 35.27395 -120.65168 32974 ft 462 kts 128°
2026-04-26 06:25 35.23675 -120.58818 32973 ft 462 kts 128°
2026-04-26 06:25 35.19918 -120.52441 32975 ft 463 kts 128°
2026-04-26 06:26 35.16149 -120.46035 32970 ft 464 kts 128°
2026-04-26 06:26 35.12382 -120.39626 32972 ft 465 kts 129°
2026-04-26 06:27 35.08609 -120.33216 32978 ft 465 kts 129°
2026-04-26 06:27 35.05458 -120.27869 32978 ft 466 kts 129°
2026-04-26 06:28 35.01674 -120.21454 32980 ft 466 kts 129°
2026-04-26 06:28 34.97857 -120.15040 32975 ft 467 kts 129°
2026-04-26 06:29 34.94037 -120.08631 32974 ft 468 kts 129°
2026-04-26 06:29 34.90875 -120.03319 32968 ft 469 kts 129°
2026-04-26 06:30 34.86432 -119.95854 32965 ft 467 kts 130°
2026-04-26 06:30 34.82620 -119.89463 32966 ft 466 kts 130°
2026-04-26 06:31 34.78809 -119.83067 32963 ft 468 kts 130°
2026-04-26 06:31 34.74966 -119.76663 32957 ft 469 kts 130°
2026-04-26 06:32 34.71132 -119.70308 32957 ft 470 kts 130°
2026-04-26 06:32 34.67267 -119.63897 32948 ft 471 kts 131°
2026-04-26 06:33 34.63394 -119.57470 32949 ft 471 kts 131°
2026-04-26 06:33 34.59538 -119.51069 32945 ft 469 kts 131°
2026-04-26 06:34 34.55681 -119.44677 32939 ft 470 kts 131°
2026-04-26 06:34 34.51841 -119.38339 32940 ft 469 kts 131°
2026-04-26 06:35 34.47966 -119.31986 32943 ft 470 kts 132°
2026-04-26 06:35 34.44124 -119.25691 32950 ft 471 kts 132°
2026-04-26 06:36 34.40233 -119.19302 32950 ft 472 kts 132°
2026-04-26 06:36 34.36367 -119.12960 32957 ft 472 kts 132°
2026-04-26 06:37 34.32464 -119.06566 32963 ft 472 kts 132°
2026-04-26 06:37 34.28555 -119.00174 32964 ft 472 kts 133°
2026-04-26 06:38 34.24644 -118.93814 32963 ft 471 kts 133°
2026-04-26 06:38 34.20845 -118.87663 32960 ft 470 kts 133°
2026-04-26 06:39 34.18051 -118.83136 32958 ft 471 kts 133°
2026-04-26 06:39 34.14131 -118.76783 32950 ft 473 kts 133°
2026-04-26 06:40 34.10265 -118.70513 32953 ft 473 kts 134°
2026-04-26 06:40 34.06645 -118.64651 32967 ft 475 kts 133°
2026-04-26 06:41 34.03161 -118.59024 32968 ft 474 kts 134°
2026-04-26 06:41 33.99203 -118.52667 32971 ft 473 kts 134°
2026-04-26 06:42 33.95939 -118.47381 32971 ft 473 kts 134°
2026-04-26 06:42 33.92447 -118.41891 32973 ft 470 kts 139°
2026-04-26 06:43 33.88749 -118.37135 32968 ft 467 kts 142°
2026-04-26 06:43 33.83705 -118.30853 32968 ft 469 kts 142°
2026-04-26 06:44 33.79236 -118.25128 32967 ft 470 kts 141°
2026-04-26 06:44 33.75202 -118.19878 32960 ft 472 kts 141°
2026-04-26 06:45 33.70849 -118.14105 32955 ft 473 kts 141°
2026-04-26 06:45 33.68662 -118.11204 32629 ft 480 kts 141°
2026-04-26 06:45 33.66395 -118.08223 32057 ft 486 kts 141°
2026-04-26 06:45 33.64121 -118.05233 31401 ft 484 kts 141°
2026-04-26 06:46 33.61858 -118.02258 30709 ft 481 kts 141°
2026-04-26 06:46 33.59601 -117.99296 29935 ft 480 kts 141°
2026-04-26 06:46 33.57392 -117.96402 29068 ft 478 kts 140°
2026-04-26 06:46 33.55152 -117.93474 28266 ft 473 kts 141°
2026-04-26 06:47 33.52898 -117.90707 27535 ft 466 kts 143°
2026-04-26 06:47 33.50614 -117.88055 26816 ft 461 kts 144°
2026-04-26 06:47 33.48299 -117.85423 26094 ft 457 kts 144°
2026-04-26 06:47 33.46000 -117.82815 25361 ft 454 kts 144°
2026-04-26 06:48 33.43714 -117.80221 24619 ft 451 kts 145°
2026-04-26 06:48 33.41408 -117.77703 23898 ft 447 kts 146°
2026-04-26 06:48 33.39090 -117.75238 23115 ft 444 kts 146°
2026-04-26 06:48 33.36780 -117.72803 22320 ft 440 kts 146°
2026-04-26 06:49 33.34492 -117.70390 21589 ft 436 kts 146°
2026-04-26 06:49 33.32301 -117.68069 20914 ft 432 kts 145°
2026-04-26 06:49 33.30068 -117.65693 20241 ft 428 kts 145°
2026-04-26 06:49 33.27859 -117.63337 19542 ft 424 kts 145°
2026-04-26 06:50 33.25671 -117.61000 18882 ft 421 kts 144°
2026-04-26 06:50 33.21791 -117.56895 17580 ft 415 kts 144°
2026-04-26 06:50 33.19657 -117.54648 16856 ft 412 kts 144°
2026-04-26 06:51 33.17523 -117.52400 16168 ft 407 kts 144°
2026-04-26 06:51 33.13308 -117.48004 14835 ft 396 kts 147°
2026-04-26 06:51 33.11372 -117.46264 14414 ft 386 kts 150°
2026-04-26 06:52 33.09200 -117.44459 13982 ft 375 kts 151°
2026-04-26 06:52 33.07064 -117.42728 13500 ft 367 kts 151°
2026-04-26 06:53 33.01043 -117.37825 12085 ft 345 kts 150°
2026-04-26 06:53 32.99176 -117.36277 11682 ft 339 kts 150°
2026-04-26 06:53 32.97286 -117.34692 11481 ft 324 kts 149°
2026-04-26 06:53 32.95472 -117.33163 11130 ft 316 kts 149°
2026-04-26 06:54 32.93698 -117.31670 10788 ft 308 kts 149°
2026-04-26 06:54 32.92038 -117.30272 10582 ft 297 kts 149°
2026-04-26 06:54 32.90384 -117.28883 10446 ft 284 kts 150°
2026-04-26 06:54 32.88808 -117.27563 10366 ft 271 kts 150°
2026-04-26 06:55 32.87330 -117.26329 10298 ft 268 kts 150°
2026-04-26 06:55 32.85803 -117.25064 10192 ft 274 kts 150°
2026-04-26 06:55 32.84227 -117.23766 10003 ft 277 kts 150°
2026-04-26 06:55 32.82634 -117.22452 9600 ft 282 kts 150°
2026-04-26 06:56 32.81156 -117.20877 9003 ft 294 kts 128°
2026-04-26 06:56 32.80307 -117.18645 8449 ft 301 kts 107°
2026-04-26 06:56 32.79802 -117.16233 8057 ft 297 kts 104°
2026-04-26 06:56 32.79338 -117.13860 7713 ft 293 kts 104°
2026-04-26 06:57 32.78888 -117.11539 7252 ft 292 kts 104°
2026-04-26 06:57 32.78433 -117.09182 6793 ft 293 kts 104°
2026-04-26 06:57 32.77958 -117.06825 6377 ft 292 kts 107°
2026-04-26 06:57 32.77292 -117.04592 6166 ft 281 kts 115°
2026-04-26 06:58 32.76506 -117.02525 6064 ft 268 kts 117°
2026-04-26 06:58 32.75777 -117.00520 6020 ft 262 kts 113°
2026-04-26 06:58 32.75092 -116.98531 6016 ft 260 kts 122°
2026-04-26 06:58 32.74018 -116.96814 5915 ft 261 kts 141°
2026-04-26 06:59 32.72468 -116.95768 5743 ft 257 kts 172°
2026-04-26 06:59 32.70748 -116.95803 5605 ft 250 kts 202°
2026-04-26 06:59 32.69324 -116.96886 5491 ft 244 kts 233°
2026-04-26 06:59 32.68629 -116.98669 5380 ft 238 kts 264°
2026-04-26 07:00 32.68657 -117.00610 5238 ft 234 kts 277°
2026-04-26 07:00 32.69013 -117.02489 5055 ft 234 kts 286°
2026-04-26 07:00 32.69538 -117.04310 4871 ft 233 kts 287°
2026-04-26 07:00 32.70071 -117.06127 4690 ft 233 kts 288°
2026-04-26 07:01 32.70605 -117.07936 4507 ft 231 kts 287°
2026-04-26 07:01 32.71118 -117.09743 4301 ft 230 kts 286°
2026-04-26 07:01 32.71604 -117.11541 4121 ft 227 kts 285°
2026-04-26 07:01 32.72060 -117.13305 4058 ft 226 kts 285°
2026-04-26 07:02 32.72506 -117.15106 4037 ft 228 kts 284°
2026-04-26 07:02 32.72960 -117.16911 4051 ft 226 kts 285°
2026-04-26 07:02 32.73428 -117.18673 4390 ft 226 kts 285°
2026-04-26 07:02 32.73912 -117.20457 4722 ft 228 kts 286°
2026-04-26 07:03 32.74402 -117.22254 5050 ft 229 kts 286°
2026-04-26 07:03 32.74900 -117.24065 5373 ft 231 kts 286°
2026-04-26 07:03 32.75400 -117.25878 5704 ft 231 kts 286°
2026-04-26 07:03 32.75900 -117.27689 5707 ft 240 kts 286°
2026-04-26 07:04 32.76416 -117.29563 5450 ft 236 kts 286°
2026-04-26 07:04 32.76929 -117.31411 5126 ft 234 kts 286°
2026-04-26 07:04 32.77436 -117.33239 4830 ft 232 kts 286°
2026-04-26 07:04 32.77933 -117.35036 4687 ft 226 kts 286°
2026-04-26 07:05 32.78414 -117.36773 4844 ft 223 kts 286°
2026-04-26 07:05 32.78894 -117.38508 4924 ft 214 kts 286°
2026-04-26 07:05 32.79337 -117.40096 4936 ft 191 kts 286°
2026-04-26 07:05 32.79609 -117.41054 4934 ft 181 kts 286°
2026-04-26 07:06 32.80139 -117.42909 4966 ft 179 kts 286°
2026-04-26 07:06 32.80668 -117.44241 4960 ft 184 kts 312°
2026-04-26 07:06 32.81883 -117.44727 4989 ft 199 kts
2026-04-26 07:06 32.83050 -117.43827 5025 ft 209 kts 54°
2026-04-26 07:07 32.83821 -117.42349 5051 ft 212 kts 58°
2026-04-26 07:07 32.84286 -117.40707 5013 ft 211 kts 95°
2026-04-26 07:07 32.84063 -117.38985 5017 ft 212 kts 104°
2026-04-26 07:07 32.83757 -117.37277 4995 ft 211 kts 105°
2026-04-26 07:08 32.83440 -117.35575 4993 ft 211 kts 105°
2026-04-26 07:08 32.83105 -117.33880 4996 ft 210 kts 106°
2026-04-26 07:08 32.82758 -117.32203 4994 ft 209 kts 107°
2026-04-26 07:08 32.82407 -117.30540 4997 ft 211 kts 107°
2026-04-26 07:09 32.82048 -117.28852 4998 ft 210 kts 107°
2026-04-26 07:09 32.81688 -117.27164 5003 ft 210 kts 107°
2026-04-26 07:09 32.81336 -117.25503 4986 ft 210 kts 107°
2026-04-26 07:09 32.80978 -117.23824 4982 ft 210 kts 106°
2026-04-26 07:10 32.79907 -117.18810 4975 ft 210 kts 107°
2026-04-26 07:11 32.79191 -117.15443 4980 ft 210 kts 106°
2026-04-26 07:11 32.78833 -117.13758 4980 ft 210 kts 106°
2026-04-26 07:11 32.78478 -117.12076 4978 ft 209 kts 106°
2026-04-26 07:11 32.78120 -117.10399 4983 ft 210 kts 106°
2026-04-26 07:12 32.77762 -117.08715 4979 ft 211 kts 106°
2026-04-26 07:12 32.77402 -117.07023 4984 ft 211 kts 106°
2026-04-26 07:12 32.77045 -117.05338 4981 ft 210 kts 106°
2026-04-26 07:12 32.76690 -117.03651 4980 ft 210 kts 106°
2026-04-26 07:13 32.76340 -117.01994 4981 ft 209 kts 106°
2026-04-26 07:13 32.75987 -117.00317 4979 ft 210 kts 106°
2026-04-26 07:13 32.75632 -116.98631 4983 ft 209 kts 106°
2026-04-26 07:13 32.75277 -116.96950 4979 ft 210 kts 106°
2026-04-26 07:14 32.74925 -116.95265 4982 ft 211 kts 106°
2026-04-26 07:14 32.74577 -116.93573 4982 ft 210 kts 106°
2026-04-26 07:14 32.74231 -116.91887 4979 ft 210 kts 106°
2026-04-26 07:14 32.73880 -116.90195 4980 ft 211 kts 109°
2026-04-26 07:15 32.73111 -116.88794 4951 ft 200 kts 156°
2026-04-26 07:15 32.71833 -116.88503 5042 ft 186 kts 189°
2026-04-26 07:15 32.70518 -116.88616 5043 ft 192 kts 189°
2026-04-26 07:15 32.69632 -116.88680 4945 ft 194 kts 188°
2026-04-26 07:16 32.67876 -116.89010 4721 ft 191 kts 215°
2026-04-26 07:16 32.67094 -116.90208 4586 ft 186 kts 249°
2026-04-26 07:16 32.66619 -116.91630 4408 ft 186 kts 250°
2026-04-26 07:16 32.66145 -116.93045 4172 ft 181 kts 249°
2026-04-26 07:17 32.65702 -116.94418 4063 ft 175 kts 250°
2026-04-26 07:17 32.65369 -116.95792 4010 ft 173 kts 270°
2026-04-26 07:17 32.65677 -116.97146 4005 ft 170 kts 290°
2026-04-26 07:17 32.66083 -116.98455 3990 ft 168 kts 285°
2026-04-26 07:18 32.66423 -116.99764 3979 ft 165 kts 285°
2026-04-26 07:18 32.66760 -117.01032 3974 ft 162 kts 287°
2026-04-26 07:18 32.67382 -117.02104 4027 ft 160 kts 317°
2026-04-26 07:18 32.68150 -117.03027 4074 ft 156 kts 298°
2026-04-26 07:19 32.68690 -117.04154 4070 ft 160 kts 296°
2026-04-26 07:19 32.69243 -117.05309 3905 ft 160 kts 296°
2026-04-26 07:19 32.69806 -117.06444 3683 ft 159 kts 297°
2026-04-26 07:19 32.70335 -117.07607 3347 ft 159 kts 292°
2026-04-26 07:20 32.70777 -117.08789 3127 ft 154 kts 289°
2026-04-26 07:20 32.71170 -117.09957 2726 ft 153 kts 287°
2026-04-26 07:20 32.71493 -117.11165 2302 ft 153 kts 284°
2026-04-26 07:20 32.71792 -117.12379 1870 ft 154 kts 284°
2026-04-26 07:21 32.72079 -117.13598 1392 ft 156 kts 284°
2026-04-26 07:21 32.72383 -117.14822 998 ft 153 kts 284°
2026-04-26 07:21 32.72668 -117.16043 580 ft 153 kts 283°
2026-04-26 07:21 32.72953 -117.17252 251 ft 151 kts 283°
2026-04-26 07:22 32.73224 -117.18430 26 ft 142 kts 284°
2026-04-26 07:22 32.73453 -117.19365 24 ft 85 kts 286°
2026-04-26 07:22 32.73560 -117.19800 27 ft 36 kts 287°
2026-04-26 07:22 32.73620 -117.20050 26 ft 26 kts 286°
2026-04-26 07:23 32.73616 -117.20196 25 ft 14 kts 218°
2026-04-26 07:23 32.73590 -117.20215 23 ft 0 kts 215°
2026-04-26 07:23 32.73589 -117.20215 23 ft 1 kts 215°
2026-04-26 07:24 32.73562 -117.20235 23 ft 7 kts 210°
2026-04-26 07:24 32.73541 -117.20250 24 ft 0 kts 210°
2026-04-26 07:24 32.73526 -117.20260 22 ft 4 kts 210°
2026-04-26 07:24 32.73482 -117.20300 23 ft 12 kts 229°
2026-04-26 07:25 32.73461 -117.20335 24 ft 1 kts 232°
2026-04-26 07:25 32.73456 -117.20342 24 ft 0 kts 232°